星链-31697 (STARLINK-31697 )

导读

STARLINK-31697是美国太空探索技术公司SpaceX星链星座的一员,于2024年4月23日发射升空,属于星链项目第二代部署任务的组成部分。星链旨在构建覆盖全球的低轨卫星互联网星座,该卫星进入近地轨道后,为全球用户提供宽带网络接入服务,尤其服务偏远地区与网络基础设施薄弱区域。

基本信息
目录编号:
59583
目录名称:
STARLINK-31697
国际标识:
2024-076V
轨道中心:
EARTH
卫星名称:
星链-31697
卫星全名:
星链-31697 (STARLINK-31697 )
卫星状态:
在轨 (已飞行872 天)
发射日期:
2024-04-23 UTC
国别 :
美国 (US)
星等 :
--
该卫星已列入 空间交会检测服务 Space Conjunction Data Service (SCDS) ,当前飞行风险评估等级: 无高风险
轨道信息
数据来源 国际轨道数据 AOE轨道数据
星历时间 2026-09-12T02:30:45+0800
6小时前
查看轨道信息
2026-09-10T17:00:00+0800
1天前
查看轨道信息
半长轴 6861.191km 6861.195km
偏心率 0.0001127 0.0001588
轨道倾角 43.004° 43.005°
近地点辐角 266.850° 263.294°
升交点赤经 37.905° 45.793°
平近点角 93.222° 328.820°
近地点 482.28km 481.968km
远地点 483.828km 484.148km
周期 94.267分钟 94.267分钟
每日圈数 15.275786 15.275773
详细信息
固有亮度:
5
最大亮度:
1.5
卫星平台:
Starlink v2.0 mini
覆盖范围:
全球
运营商:
太空探索技术公司
运营商所在国:
美国
制造商(研发单位):
太空探索技术公司
制造商所在国:
美国
使用方式:
暂无
卫星简介
星链(Starlink)计划是由太空探索技术公司(SpaceX)提出的一个巨型低轨卫星互联网星座项目,计划在2019年至2024年间在太空搭建由约1.2万颗卫星组成的“星链”网络,其中1584颗将部署在地球上空550千米处的近地轨道,并从2020年开始工作。该卫星仍在工作。
2D轨道图
3D轨道图
轨道高度分析图
轨道倾角分析图
轨道综合分析图
查看轨道综合分析图
交会数据列表
事件ID 空间交会对象 最接近时刻(TCA) 交会距离 交会风险概率(CRP) 交会风险指数(CRI) 操作
CDM_260912-191905-847605-958321
2026-09-12T
19:19:32+0000
0.807 km
远距离
2.644433E-5 中风险 0.63
CDM_260913-030203-403605-958321
2026-09-13T
03:02:00+0000
1.161 km
极远距离
1.179691E-5 中风险 0.56
CDM_260913-004905-847605-958321
2026-09-13T
00:49:04+0000
1.262 km
极远距离
5.770282E-6 低风险 0.5
CDM_260911-120703-331805-958327
2026-09-11T
12:07:05+0000
2.133 km
极远距离
2.382887E-6 低风险 0.43
CDM_260913-022305-847605-958321
2026-09-13T
02:23:13+0000
1.834 km
极远距离
1.837529E-6 低风险 0.4
CDM_260912-205305-847605-958321
2026-09-12T
20:53:41+0000
2.527 km
极远距离
9.288326E-7 极低风险 0.34
CDM_260912-085605-958306-429921
2026-09-12T
08:56:58+0000
2.875 km
极远距离
8.570404E-7 极低风险 0.34
与全量物体交会距离演化趋势
与全量物体交会风险概率演化趋势